Location: ??????
(33.3472°N, 35.4764°E)
Time: 11:44:10
(UTC+00:00)

Cosmos 1818 - Pass Details

Date: 21 August 2019
Orbit: 774 x 799 km, 65.0° (Epoch: 23 September)

Event Time Altitude Azimuth Distance (km) Brightness Sun altitude
Exits shadow 02:15:42 -1° 198° (SSW) 3,342 6.4 -10.5°
Rises 02:15:54 0° 198° (SSW) 3,266 6.4 -10.4°
Reaches altitude 10° 02:18:19 10° 194° (SSW) 2,345 5.7 -10.0°
Maximum altitude 02:23:38 62° 115° (ESE) 889 4.1 -8.9°
Drops below altitude 10° 02:29:00 10° 35° (NE) 2,371 7.0 -7.9°
Sets 02:31:28 0° 33° (NNE) 3,305 7.7 -7.4°
